[[{"header":{"parameterUnit":"m.s-1","parameterCategory":1,"la1":30.2991,"la2":30.254,"lo1":-89.0895,"lo2":-89.0444,"dy":0.0017,"dx":0.0017,"nx":28,"ny":28,"refTime":"2025-05-26T21:00:00:Z","depth":0,"parameterNumber":2,"parameterNumberName":"U-component_of_WINDS"},"data":[0,0,0,0,0,0,0,0,0,0,0,0,0,0,0,0,0,0,0,0,0,0,0,0,0,0,0,0,0,0,0,0,0,0,0,0,0,0,0,0,0,0,0,0,0,0,0,0,0,0,0,0,0,0,0,0,0,0,1.1829,1.183,0,1.1878,1.1878,1.1879,1.1862,1.1861,1.186,1.1859,1.1909,1.1911,1.1914,0,0,0,0,0,0,0,0,0,0,0,0,0,1.1722,1.1724,1.1829,1.183,1.1831,1.1878,1.1879,1.1879,1.1862,1.1861,1.186,1.1858,1.1908,1.1911,1.1914,0,0,0,0,0,0,0,0,0,0,0,0,0,1.1769,1.1724,1.1829,1.1828,1.1828,1.1878,1.1879,1.1879,1.1863,1.1861,1.1859,1.1858,1.1907,1.1911,1.1914,1.1968,0,0,1.1925,1.1926,0,0,0,0,0,0,0,0,1.1766,1.1773,1.1827,1.1828,1.1828,1.1862,1.1859,1.1909,1.1863,1.1849,1.1859,1.1857,1.1895,1.1899,1.1912,1.1971,1.1973,1.1925,1.1927,1.1929,1.193,0,0,0,0,0,0,0,1.1763,1.1771,1.1849,1.1828,1.1829,1.1825,1.183,1.1868,1.1881,1.1851,1.1849,1.1855,1.1895,1.1909,1.1913,1.1974,1.1925,1.1928,1.193,1.1932,1.2078,1.208,0,0,0,0,0,0,1.176,1.1768,1.1847,1.185,1.1793,1.1828,1.1833,1.1853,1.188,1.1883,1.1857,1.1854,1.1903,1.1909,1.1915,1.1979,1.1929,1.1932,1.1934,1.2077,1.2079,1.2081,0,0,0,0,0,0,1.1757,1.1767,1.1845,1.1809,1.1818,1.1831,1.1854,1.1855,1.1869,1.1885,1.1887,1.1869,1.1902,1.191,1.1955,1.1981,1.1934,1.1937,1.2074,1.2077,1.208,1.2109,0,0,0,0,0,0,1.1754,1.1766,1.1787,1.1809,1.182,1.1885,1.1855,1.1857,1.1875,1.1872,1.1897,1.1899,1.1902,1.195,1.1958,1.1985,1.194,1.2072,1.2076,1.2079,1.2106,1.2113,1.2118,0,0,0,0,0,1.1751,1.1793,1.1788,1.1798,1.1847,1.1886,1.1892,1.1894,1.1877,1.1898,1.1908,1.1898,1.1977,1.1955,1.1964,1.1992,1.2071,1.2075,1.2079,1.2103,1.2111,1.2118,0,0,0,0,0,0,1.1774,1.1796,1.1791,1.1842,1.1862,1.1883,1.191,1.1903,1.1929,1.1925,1.1927,1.1932,1.1979,1.199,1.1965,1.2045,1.2021,1.2027,1.2037,1.2044,1.205,1.2047,1.1943,0,0,0,0,0,1.1785,1.1815,1.1833,1.1877,1.1887,1.1897,1.1914,1.1914,1.1935,1.1943,1.1957,1.1978,1.2007,1.2026,1.2054,1.2108,1.2113,1.2131,1.2138,1.2143,1.2148,1.2176,1.2185,1.2094,1.2094,1.2094,0,0,1.1808,1.1824,1.1843,1.1882,1.1897,1.1928,1.1904,1.1938,1.1961,1.1948,1.1992,1.2003,1.2026,1.2075,1.2098,1.2086,1.2174,1.2148,1.2151,1.2154,1.2182,1.219,1.2198,1.2097,1.2096,1.2096,0,0,1.1866,1.1881,1.1919,1.1935,1.1959,1.1965,1.1974,1.1996,1.2003,1.2046,1.2037,1.2065,1.2115,1.2132,1.2147,1.2211,1.2203,1.222,1.2252,1.228,1.2287,1.2294,1.2316,1.2324,1.2225,1.2226,1.2226,0,1.1892,1.1938,1.194,1.1974,1.1991,1.1981,1.2019,1.2035,1.2067,1.2079,1.2065,1.2128,1.2143,1.2196,1.2211,1.2224,1.2234,1.2218,1.2286,1.2293,1.2299,1.232,1.2329,1.2227,1.2227,1.2227,1.2227,0,1.1969,1.2001,1.2029,1.206,1.208,1.2116,1.2123,1.2143,1.2141,1.2148,1.2192,1.221,1.2241,1.2254,1.2252,1.2307,1.2298,1.2286,1.2261,1.2309,1.2329,1.2338,1.223,1.223,1.2229,1.2228,0,0,1.2043,1.2074,1.2084,1.2097,1.2123,1.2148,1.2183,1.2214,1.2231,1.2253,1.2283,1.2326,1.2314,1.2331,1.2331,1.2356,1.2405,1.234,1.234,1.2351,1.2465,1.2475,1.2484,1.24,1.2401,1.2402,1.2463,0,1.2103,1.2165,1.2167,1.2225,1.2254,1.2245,1.2276,1.2295,1.2302,1.2329,1.2337,1.2367,1.235,1.236,1.2384,1.2394,1.2428,1.2389,1.2427,1.2429,1.2421,1.2495,1.2505,1.2562,1.2471,1.2473,1.2474,0,1.2181,1.2205,1.2266,1.2286,1.2299,1.2327,1.2354,1.238,1.2401,1.2405,1.2424,1.242,1.2456,1.2431,1.2481,1.2454,1.247,1.2477,1.2479,1.2483,1.2454,1.25,1.258,1.2588,1.2486,1.2485,1.2484,0,1.2229,1.2277,1.2319,1.2331,1.2356,1.2376,1.2387,1.2407,1.2425,1.2449,1.246,1.2489,1.2504,1.2526,1.253,1.2511,1.258,1.2554,1.2584,1.2584,1.2599,1.2598,1.2682,1.2609,1.2609,1.2609,1.2609,0,1.2295,1.2332,1.234,1.2366,1.2407,1.2409,1.245,1.246,1.2477,1.2505,1.2498,1.2524,1.2528,1.2555,1.2559,1.2599,1.2606,1.261,1.2611,1.2611,1.261,1.2621,1.2617,1.2611,1.2611,1.261,1.261,0,1.2355,1.2362,1.2407,1.2428,1.2433,1.2463,1.248,1.2505,1.2512,1.2547,1.2555,1.2566,1.2597,1.2603,1.2641,1.2643,1.2691,1.2688,1.2684,1.2684,1.2713,1.271,1.2806,1.2819,1.2738,1.2739,1.274,0,1.2397,1.2425,1.2448,1.2466,1.2479,1.2508,1.2526,1.2529,1.2548,1.2574,1.2595,1.2626,1.265,1.2701,1.2712,1.274,1.2738,1.2769,1.2742,1.2741,1.2738,1.2736,1.2739,1.2775,1.2776,1.2776,1.2777,0,1.247,1.2472,1.2499,1.2526,1.2548,1.257,1.2591,1.2606,1.2611,1.2633,1.2665,1.2684,1.2722,1.2752,1.278,1.2792,1.2786,1.2786,1.2794,1.2794,1.2791,1.2792,1.2698,1.2783,1.2783,1.2782,1.2782,1.2782,1.2522,1.2547,1.2567,1.2596,1.2612,1.2632,1.2656,1.2666,1.2692,1.2723,1.2723,1.2758,1.2778,1.2815,1.2829,1.2856,1.2846,1.2858,1.2861,1.2864,1.2866,1.2786,1.2861,1.2861,1.2861,1.2861,1.286,0,1.2595,1.2607,1.2634,1.2664,1.2687,1.2679,1.2701,1.2721,1.2752,1.2771,1.2795,1.2832,1.2861,1.2875,1.2903,1.2923,1.292,1.293,1.2929,1.2931,1.2874,1.2864,1.2931,1.2931,1.2931,1.2931,1.2931,1.2931,1.2635,1.2676,1.2681,1.2729,1.2742,1.2775,1.2789,1.2807,1.2822,1.2863,1.2887,1.2896,1.2913,1.2943,1.297,1.2973,1.2984,1.2995,1.2997,1.2943,1.2935,1.2928,1.2919,1.2997,1.2997,1.3052,1.3052,1.3053]},{"header":{"parameterUnit":"m.s-1","parameterCategory":1,"la1":30.2991,"la2":30.254,"lo1":-89.0895,"lo2":-89.0444,"dy":0.0017,"dx":0.0017,"nx":28,"ny":28,"refTime":"2025-05-26T21:00:00:Z","depth":0,"parameterNumber":3,"parameterNumberName":"V-component_of_WINDS"},"data":[0,0,0,0,0,0,0,0,0,0,0,0,0,0,0,0,0,0,0,0,0,0,0,0,0,0,0,0,0,0,0,0,0,0,0,0,0,0,0,0,0,0,0,0,0,0,0,0,0,0,0,0,0,0,0,0,0,0,2.0947,2.0947,0,2.0943,2.0943,2.0943,2.0907,2.0906,2.0905,2.0904,2.0899,2.09,2.0901,0,0,0,0,0,0,0,0,0,0,0,0,0,2.0924,2.0925,2.0947,2.0947,2.0947,2.0943,2.0943,2.0943,2.0907,2.0906,2.0905,2.0904,2.0899,2.09,2.0901,0,0,0,0,0,0,0,0,0,0,0,0,0,2.0929,2.0925,2.0947,2.0929,2.0927,2.0943,2.0943,2.0943,2.0907,2.0906,2.0905,2.0903,2.0899,2.09,2.0901,2.0934,0,0,2.0904,2.0905,0,0,0,0,0,0,0,0,2.0928,2.0929,2.0932,2.093,2.0928,2.0924,2.0933,2.094,2.0908,2.0915,2.0904,2.0903,2.0909,2.0909,2.0911,2.0933,2.0933,2.0904,2.0905,2.0905,2.0906,0,0,0,0,0,0,0,2.0928,2.0929,2.0945,2.0932,2.093,2.0921,2.092,2.0934,2.0919,2.0914,2.0912,2.0912,2.0908,2.091,2.091,2.0933,2.0904,2.0905,2.0906,2.0906,2.0982,2.0983,0,0,0,0,0,0,2.0931,2.0929,2.0946,2.0945,2.0925,2.0922,2.0921,2.0927,2.0919,2.0916,2.0913,2.091,2.0909,2.0909,2.091,2.0948,2.0905,2.0906,2.0907,2.0981,2.0982,2.0984,0,0,0,0,0,0,2.093,2.0932,2.0946,2.0937,2.0938,2.0924,2.093,2.0927,2.093,2.0918,2.0915,2.0918,2.0908,2.0909,2.0928,2.0947,2.0907,2.0908,2.0979,2.0981,2.0983,2.1023,0,0,0,0,0,0,2.093,2.0932,2.0945,2.0937,2.0938,2.0964,2.0932,2.0928,2.0932,2.0928,2.0922,2.092,2.0907,2.0927,2.0929,2.0948,2.0908,2.0977,2.098,2.0982,2.102,2.1027,2.1032,0,0,0,0,0,2.0929,2.0956,2.0946,2.0948,2.0954,2.0965,2.0966,2.095,2.0933,2.0946,2.0938,2.092,2.0945,2.0929,2.0931,2.0951,2.0976,2.0979,2.0982,2.1018,2.1025,2.1032,0,0,0,0,0,0,2.0967,2.0955,2.0943,2.0969,2.0968,2.0959,2.0974,2.0959,2.0963,2.096,2.094,2.0939,2.0962,2.0958,2.0941,2.0982,2.0957,2.0961,2.0983,2.0991,2.0996,2.0997,2.0909,0,0,0,0,0,2.0978,2.0988,2.0978,2.1001,2.1002,2.0988,2.0993,2.0981,2.0979,2.0979,2.0973,2.0972,2.0979,2.0985,2.0991,2.102,2.1018,2.1034,2.104,2.1045,2.1048,2.1063,2.107,2.0994,2.0994,2.0994,0,0,2.1001,2.0996,2.1004,2.1009,2.1007,2.1018,2.0988,2.1001,2.1009,2.0981,2.0999,2.0994,2.0992,2.1016,2.1026,2.1014,2.1069,2.1049,2.1053,2.1054,2.1067,2.1074,2.1081,2.0996,2.0996,2.0995,0,0,2.105,2.1047,2.1066,2.1065,2.1063,2.1053,2.1058,2.1051,2.1047,2.1065,2.1044,2.1053,2.1066,2.1065,2.1067,2.1115,2.1098,2.1117,2.1148,2.1163,2.1169,2.1174,2.1191,2.1197,2.1121,2.1121,2.1121,0,2.1079,2.1095,2.1078,2.1093,2.1095,2.107,2.109,2.1089,2.1089,2.1091,2.1077,2.1093,2.109,2.1114,2.1125,2.1127,2.1132,2.1118,2.1169,2.1174,2.1179,2.1195,2.1201,2.1123,2.1123,2.1123,2.1123,0,2.1131,2.1143,2.1158,2.1159,2.1163,2.118,2.1166,2.1172,2.116,2.1152,2.117,2.1166,2.117,2.1175,2.1163,2.1197,2.1189,2.1172,2.1147,2.1189,2.1203,2.1209,2.1127,2.1126,2.1125,2.1124,0,0,2.1203,2.1194,2.12,2.12,2.1195,2.1204,2.1219,2.1224,2.123,2.1231,2.1243,2.1255,2.1239,2.1241,2.1229,2.1242,2.128,2.1223,2.1223,2.1234,2.1317,2.133,2.1337,2.1269,2.127,2.1271,2.1317,0,2.1249,2.1276,2.1261,2.1289,2.13,2.1276,2.1289,2.1288,2.1281,2.1289,2.1281,2.129,2.1268,2.1269,2.1281,2.1273,2.1296,2.1269,2.1281,2.1281,2.1282,2.1345,2.1358,2.1402,2.1323,2.1324,2.1324,0,2.1307,2.131,2.134,2.1333,2.1337,2.1349,2.1352,2.136,2.1358,2.1352,2.1354,2.1339,2.1353,2.1328,2.1348,2.133,2.1334,2.1331,2.1332,2.1333,2.1305,2.1347,2.1415,2.1422,2.1333,2.1333,2.1332,0,2.1357,2.1368,2.1387,2.1388,2.1381,2.139,2.1387,2.1384,2.1388,2.139,2.1393,2.1397,2.1399,2.1403,2.1389,2.1373,2.1411,2.1385,2.1407,2.1407,2.1416,2.1416,2.1486,2.1418,2.1418,2.1418,2.1418,0,2.141,2.1429,2.1409,2.1421,2.1442,2.1424,2.1445,2.144,2.1437,2.1447,2.1427,2.1437,2.1418,2.1426,2.1416,2.1434,2.1435,2.1431,2.1427,2.1432,2.1433,2.1435,2.1431,2.142,2.1419,2.1419,2.1419,0,2.1469,2.1456,2.1476,2.1467,2.1466,2.1481,2.1474,2.1484,2.1476,2.1489,2.1491,2.1478,2.1486,2.1473,2.148,2.1473,2.1498,2.149,2.1499,2.1497,2.1519,2.1517,2.1593,2.1602,2.1529,2.1529,2.153,0,2.1504,2.1518,2.1511,2.1516,2.1515,2.1524,2.1527,2.1511,2.1516,2.1514,2.1525,2.1532,2.1536,2.1551,2.1542,2.1547,2.154,2.1566,2.154,2.1545,2.154,2.154,2.1541,2.1571,2.1572,2.1573,2.1573,0,2.1567,2.156,2.1566,2.1571,2.1576,2.1578,2.1579,2.1585,2.1567,2.1574,2.1582,2.1586,2.1593,2.16,2.1603,2.16,2.1584,2.1581,2.1587,2.1592,2.1597,2.1595,2.1513,2.158,2.1579,2.1579,2.1578,2.1578,2.1615,2.1626,2.1623,2.1631,2.163,2.1631,2.164,2.1633,2.164,2.1645,2.1634,2.1646,2.1643,2.1645,2.1644,2.1652,2.1641,2.1649,2.165,2.1653,2.1656,2.1595,2.1653,2.1653,2.1652,2.1652,2.1652,0,2.1677,2.1674,2.1681,2.1683,2.1689,2.1673,2.1674,2.168,2.169,2.1689,2.1694,2.1703,2.171,2.1702,2.1707,2.1715,2.1708,2.1717,2.1717,2.1716,2.1666,2.1661,2.1723,2.1723,2.1723,2.1723,2.1723,2.1723,2.171,2.1728,2.1721,2.1739,2.1735,2.1746,2.1748,2.1749,2.1748,2.176,2.1765,2.176,2.1756,2.1761,2.1766,2.1764,2.1767,2.1778,2.1773,2.1727,2.172,2.1713,2.1708,2.1779,2.1779,2.1823,2.1823,2.1823]}]]